PST,Max TemperatureF,Mean TemperatureF,Min TemperatureF,Max Dew PointF,MeanDew PointF,Min DewpointF,Max Humidity, Mean Humidity, Min Humidity, Max Sea Level PressureIn, Mean Sea Level PressureIn, Min Sea Level PressureIn, Max VisibilityMiles, Mean VisibilityMiles, Min VisibilityMiles, Max Wind SpeedMPH, Mean Wind SpeedMPH, Max Gust SpeedMPH,PrecipitationIn, CloudCover, Events, WindDirDegrees
2012-12-1,68,64,59,63,60,56,100,92,70,30.18,30.13,30.08,10,7,0,12,1,63,0.00,6,,313
2012-12-2,69,63,57,59,57,54,97,85,58,30.14,30.12,30.07,10,10,10,9,1,,0.00,7,,299
2012-12-3,64,57,50,61,58,50,100,95,75,30.19,30.16,30.12,10,6,1,6,1,,0.00,6,Rain,262
2012-12-4,68,62,55,59,57,53,100,92,63,30.22,30.17,30.13,10,6,1,10,1,,0.00,5,,304
2012-12-5,66,60,53,57,55,54,100,94,68,30.16,30.10,30.03,10,4,0,6,2,,0.00,6,Fog,342
2012-12-6,66,60,55,57,55,53,100,89,68,30.03,29.96,29.86,10,7,2,7,2,,0.00,7,,60
2012-12-7,64,58,51,56,55,52,100,91,73,29.98,29.94,29.90,7,4,0,8,2,,0.00,3,Fog,225
2012-12-8,64,56,48,54,52,49,100,93,61,29.99,29.95,29.90,7,2,0,4,0,,0.00,3,Fog,5
2012-12-9,63,54,46,53,50,42,100,94,56,30.12,30.03,29.98,10,2,0,7,2,,0.00,4,Fog,61
2012-12-10,73,60,46,53,40,27,100,61,18,30.12,30.08,30.05,10,8,3,67,4,84,0.00,0,,359
2012-12-11,73,60,46,56,43,28,100,71,19,30.05,30.01,29.96,10,7,0,8,5,,0.00,0,Fog,164
2012-12-12,66,54,42,52,48,37,100,78,52,30.00,29.93,29.88,10,9,0,13,6,51,0.01,4,Fog,152
2012-12-13,57,54,50,54,51,41,100,88,66,29.86,29.81,29.76,10,6,1,15,7,26,1.73,7,Rain,234
2012-12-14,57,52,48,49,44,38,92,74,49,30.00,29.93,29.79,10,10,10,13,7,17,0.08,6,Rain,229
2012-12-15,57,52,48,52,46,38,100,82,53,30.13,30.01,29.92,10,9,2,59,8,66,0.05,6,Rain,113
2012-12-16,59,54,50,54,49,43,100,85,62,30.18,30.14,30.12,10,9,5,9,4,,0.00,8,Rain,132
2012-12-17,62,58,55,57,55,52,100,92,72,30.17,30.11,30.02,10,8,1,36,6,102,0.02,7,Rain,196
2012-12-18,57,54,51,56,51,28,100,86,41,30.02,29.92,29.86,10,8,2,14,5,23,0.04,7,Rain,254
2012-12-19,57,48,39,31,25,15,65,42,28,30.24,30.16,30.03,10,10,10,8,5,18,0.00,0,,114
2012-12-20,69,56,43,37,25,13,68,37,13,30.21,30.13,30.07,10,10,9,67,10,25,0.00,0,,139
2012-12-21,62,50,39,46,33,23,86,58,24,30.12,30.07,30.04,10,10,10,9,5,,0.00,0,,126
2012-12-22,57,47,37,46,42,33,93,77,61,30.22,30.14,30.07,10,10,7,10,5,,0.00,0,,112
2012-12-23,62,52,42,52,46,39,100,82,55,30.23,30.17,30.12,10,10,7,21,7,100,0.00,2,,154
2012-12-24,61,53,45,57,52,45,100,94,77,30.16,30.09,30.02,10,6,2,13,6,18,0.03,5,Rain,171
2012-12-25,64,53,42,48,44,25,100,84,23,30.10,30.06,30.01,10,7,2,12,3,102,0.00,1,,119
2012-12-26,59,52,46,52,46,41,96,80,60,30.03,29.99,29.97,10,9,2,14,7,23,0.00,5,Rain,174
2012-12-27,57,50,43,48,44,40,100,80,53,30.11,30.02,29.97,10,10,7,16,5,47,0.02,2,Rain,213
2012-12-28,64,32,1,43,32,1,100,61,20,30.17,30.11,30.06,10,10,9,12,6,,0.00,0,,123
2012-12-29,57,50,43,50,41,31,100,77,54,30.09,30.03,29.97,10,8,2,12,7,,0.12,5,Rain,167
2012-12-30,53,48,39,47,44,39,100,87,71,30.07,29.97,29.92,10,10,7,17,5,83,0.21,5,Rain,177
2012-12-31,57,47,37,40,36,32,97,72,40,30.26,30.19,30.09,10,10,7,9,5,,0.00,0,,139